Weather in Ortisei

Italy     46°34′24″N   11°39′48″E
temp.,
°C
wind,
m/s
gust,
m/s
humid.,
%
clouds,
%
prec.,
mm/h
press.,
hPa
HPBL,
m
17 april, sat
sat1723:00−10ese119586 0.0 102611
02:00−11e11935 0.0 102511
05:00−13e119210 0.0 102511
08:00−7ne118827 0.0 102049
11:00−2n1275100 0.0 1017748
14:000ne1274100 0.0 10151130
17:000ene1272100 0.1 10131055
20:00−6ene119289 0.1 101711
18 april, sun
sun1823:00−8e119288 0.0 102111
02:00−9e1194100 0.0 102112
05:00−10ene119654 0.0 102113
08:00−5nne12915 0.0 101783
11:00−1n118277 0.0 1015880
14:00+1ne117575 0.5 10131193
17:00+1nnw1175100 1.1 1012793
20:00−3ne0095100 2.3 101512
19 april, mon
mon1923:00−6ne1197100 0.4 101918
02:00−8ene119688 0.4 102016
05:00−8ene119597 0.0 102014
08:00−4nne128893 0.0 1017111
11:00−1n127879 0.0 1015872
14:00+2n1271100 0.8 10121106
17:000nne1280100 1.0 1012656
20:00−2n0194100 1.8 101410
20 april, tue
tue2023:00−6e119518 0.1 101811
02:00−7e11965 0.1 101811
05:00−8e119557 0.0 101811
08:00−3n118766 0.0 101593
11:00+1nnw117651 0.0 1013919
14:00+4w116699 0.9 10111338
17:00+3wsw1273100 1.8 1011916
20:00−1sw119997 3.1 101536
21 april, wed
wed2123:00−2ne019999 1.4 101762
02:00−3ese019964 4.8 101829
05:00−6ese119837 0.4 102111
08:00−2n01895 0.4 1018103
11:00+2nw117977 0.1 1017931
14:00+4sw117586 1.5 1016977
17:00+3s118085 2.2 1016572
20:00−1sse2298100 2.9 101528